Погода в Карамахи

Россия / Республика Дагестан     42°37′06″N   47°15′29″E
темп.,
°C
ветер,
м/с
пор.,
м/с
влажн.,
%
обл.,
%
осадки,
мм/ч
давл.,
гПа
погр.,
м
16 июня, ср
ср1600:00+15юз22900 0.0 101212
03:00+13юз22840 0.0 101313
06:00+16ююз11710 0.0 101360
09:00+22в23570 0.0 1011590
12:00+25в33530 0.0 1009879
15:00+25вюв33570 0.0 1008724
18:00+23вюв33720 0.0 1008204
21:00+18ю32790 0.0 100918
17 июня, чт
чт1700:00+16ююз32610 0.0 100920
03:00+15ююз32500 0.0 100823
06:00+17ююз33520 0.0 100753
09:00+25юз22380 0.0 1005374
12:00+28ссв54390 0.0 10061161
15:00+24с66531 0.0 10091267
18:00+21с457411 0.0 1012766
21:00+17в118528 0.1 101511
18 июня, пт
пт1800:00+16ююз11867 0.0 101511
03:00+14з11900 0.1 101612
06:00+16з1187100 0.0 1017127
09:00+21всв236233 0.0 10161285
12:00+20св446783 0.1 1017827
15:00+19св226590 4.0 1017804
18:00+19с226663 0.6 1018665
21:00+16зюз117814 0.6 101912
19 июня, сб
сб1900:00+14юз11840 0.0 101912
03:00+13юз21880 0.0 101913
06:00+16ююз22800 0.0 101996
09:00+22вюв23580 0.0 1017743
12:00+25в33480 0.0 10161283
15:00+25в43520 0.0 10151223
18:00+22в34670 0.0 1015399
21:00+17ююв33780 0.0 101737
20 июня, вс
вс2000:00+16ю33741 0.0 101725
03:00+15ююз22631 0.0 101614
06:00+18ю22600 0.0 101764
09:00+24юв34410 0.0 1015626
12:00+26вюв55412 0.0 1014773
15:00+25вюв55490 0.0 1014795
18:00+22вюв35690 0.0 1015342
21:00+16юв45820 0.0 101864